When you browse on this site, cookies collect data to enhance your experience and personalize the content and advertising you see.
Visit our Privacy Policy to learn more. By continuing to use the site, you agree to this use of cookies and data.
  • In Österreich
  • Länderverzeichnis
  • Für 7 Tage
  • Wassertemperatur
  • Satellitenkarten
  • Wetterkarte
  • News
  • Widgets
  • user-avatar
    Anmelden

    Stündliche Wetter Tultschin

    Heute, 19 April, Freitag

    Zeit Temperatur Niederschläge Wind Luftdruck Luftfeuchtigkeit
    00:00 +8°C° 0.2 mm 2 m/S 747 mmHg 70%
    01:00 +8°C° 0.2 mm 2 m/S 746 mmHg 73%
    02:00 +8°C° 0.2 mm 2 m/S 746 mmHg 76%
    03:00 +7°C° 0.3 mm 3 m/S 746 mmHg 80%
    04:00 +7°C° 0.3 mm 3 m/S 746 mmHg 84%
    05:00 +5°C° 0.3 mm 3 m/S 745 mmHg 87%
    06:00 +6°C° 0 mm 4 m/S 746 mmHg 83%
    07:00 +7°C° 0 mm 5 m/S 746 mmHg 79%
    08:00 +8°C° 0 mm 6 m/S 746 mmHg 76%
    09:00 +9°C° 0.5 mm 6 m/S 747 mmHg 70%
    10:00 +10°C° 0.5 mm 5 m/S 747 mmHg 64%
    11:00 +12°C° 0.5 mm 4 m/S 748 mmHg 58%
    12:00 +12°C° 0.8 mm 4 m/S 748 mmHg 58%
    13:00 +12°C° 0.8 mm 4 m/S 748 mmHg 57%
    14:00 +12°C° 0.8 mm 4 m/S 748 mmHg 56%
    15:00 +12°C° 0.6 mm 4 m/S 748 mmHg 58%
    16:00 +11°C° 0.6 mm 4 m/S 749 mmHg 61%
    17:00 +10°C° 0.6 mm 5 m/S 749 mmHg 63%
    18:00 +8°C° 0 mm 4 m/S 749 mmHg 65%
    19:00 +8°C° 0 mm 3 m/S 749 mmHg 67%
    20:00 +7°C° 0 mm 2 m/S 749 mmHg 69%
    21:00 +7°C° 0 mm 2 m/S 750 mmHg 70%
    22:00 +6°C° 0 mm 2 m/S 750 mmHg 71%
    23:00 +5°C° 0 mm 2 m/S 750 mmHg 72%

    Morgen, 20 April, Samstag

    Zeit Temperatur Niederschläge Wind Luftdruck Luftfeuchtigkeit
    00:00 +5°C° 0 mm 2 m/S 750 mmHg 72%
    01:00 +5°C° 0 mm 2 m/S 750 mmHg 72%
    02:00 +4°C° 0 mm 2 m/S 750 mmHg 72%
    03:00 +4°C° 0 mm 2 m/S 750 mmHg 73%
    04:00 +4°C° 0 mm 2 m/S 750 mmHg 74%
    05:00 +4°C° 0 mm 2 m/S 750 mmHg 74%
    06:00 +5°C° 0 mm 2 m/S 750 mmHg 69%
    07:00 +7°C° 0 mm 2 m/S 750 mmHg 64%
    08:00 +9°C° 0 mm 2 m/S 750 mmHg 59%
    09:00 +10°C° 0.1 mm 2 m/S 750 mmHg 55%
    10:00 +10°C° 0.1 mm 2 m/S 750 mmHg 51%
    11:00 +11°C° 0.1 mm 3 m/S 750 mmHg 47%
    12:00 +12°C° 0 mm 3 m/S 750 mmHg 46%
    13:00 +13°C° 0 mm 2 m/S 749 mmHg 46%
    14:00 +13°C° 0 mm 2 m/S 749 mmHg 45%
    15:00 +13°C° 0.1 mm 2 m/S 749 mmHg 48%
    16:00 +13°C° 0.1 mm 2 m/S 748 mmHg 51%
    17:00 +12°C° 0.1 mm 2 m/S 748 mmHg 55%
    18:00 +10°C° 0.1 mm 2 m/S 748 mmHg 60%
    19:00 +10°C° 0.1 mm 1 m/S 748 mmHg 65%
    20:00 +10°C° 0.1 mm 1 m/S 748 mmHg 70%
    21:00 +9°C° 0 mm 1 m/S 748 mmHg 71%
    22:00 +9°C° 0 mm 1 m/S 748 mmHg 72%
    23:00 +7°C° 0 mm 0 m/S 747 mmHg 73%

    übermorgen, 21 April, Sonntag

    Zeit Temperatur Niederschläge Wind Luftdruck Luftfeuchtigkeit
    00:00 +7°C° 0 mm 0 m/S 747 mmHg 74%
    01:00 +8°C° 0 mm 1 m/S 747 mmHg 76%
    02:00 +7°C° 0 mm 1 m/S 747 mmHg 77%
    03:00 +7°C° 0.1 mm 1 m/S 747 mmHg 78%
    04:00 +7°C° 0.1 mm 1 m/S 746 mmHg 80%
    05:00 +6°C° 0.1 mm 0 m/S 746 mmHg 81%
    06:00 +8°C° 0.3 mm 1 m/S 746 mmHg 81%
    07:00 +8°C° 0.3 mm 1 m/S 746 mmHg 80%
    08:00 +8°C° 0.3 mm 2 m/S 746 mmHg 80%
    09:00 +9°C° 0.4 mm 2 m/S 746 mmHg 77%
    10:00 +9°C° 0.4 mm 3 m/S 746 mmHg 74%
    11:00 +10°C° 0.4 mm 3 m/S 746 mmHg 71%
    12:00 +11°C° 0.5 mm 3 m/S 746 mmHg 68%
    13:00 +12°C° 0.5 mm 4 m/S 746 mmHg 64%
    14:00 +12°C° 0.5 mm 4 m/S 746 mmHg 61%
    15:00 +12°C° 0.7 mm 4 m/S 746 mmHg 64%
    16:00 +12°C° 0.7 mm 4 m/S 746 mmHg 66%
    17:00 +11°C° 0.7 mm 4 m/S 746 mmHg 69%
    18:00 +10°C° 0.3 mm 4 m/S 746 mmHg 72%
    19:00 +10°C° 0.3 mm 4 m/S 746 mmHg 76%
    20:00 +8°C° 0.3 mm 4 m/S 746 mmHg 79%
    21:00 +8°C° 0.1 mm 4 m/S 747 mmHg 79%
    22:00 +8°C° 0.1 mm 3 m/S 747 mmHg 79%
    23:00 +8°C° 0.1 mm 3 m/S 747 mmHg 80%

    22 April, Montag

    Zeit Temperatur Niederschläge Wind Luftdruck Luftfeuchtigkeit
    00:00 +7°C° 0.5 mm 4 m/S 747 mmHg 80%
    01:00 +6°C° 0.5 mm 4 m/S 747 mmHg 81%
    02:00 +6°C° 0.5 mm 4 m/S 748 mmHg 82%
    03:00 +6°C° 0.5 mm 4 m/S 748 mmHg 81%
    04:00 +5°C° 0.5 mm 4 m/S 748 mmHg 81%
    05:00 +5°C° 0.5 mm 3 m/S 748 mmHg 81%
    06:00 +7°C° 0.1 mm 3 m/S 748 mmHg 77%
    07:00 +7°C° 0.1 mm 4 m/S 749 mmHg 74%
    08:00 +7°C° 0.1 mm 4 m/S 749 mmHg 70%
    09:00 +10°C° 0 mm 4 m/S 750 mmHg 62%
    10:00 +11°C° 0 mm 4 m/S 750 mmHg 55%
    11:00 +12°C° 0 mm 5 m/S 750 mmHg 48%
    12:00 +13°C° 0 mm 5 m/S 750 mmHg 46%
    13:00 +13°C° 0 mm 5 m/S 750 mmHg 45%
    14:00 +14°C° 0 mm 5 m/S 750 mmHg 43%
    15:00 +13°C° 0 mm 5 m/S 750 mmHg 45%
    16:00 +13°C° 0 mm 5 m/S 750 mmHg 46%
    17:00 +12°C° 0 mm 4 m/S 750 mmHg 48%
    18:00 +12°C° 0 mm 4 m/S 750 mmHg 51%
    19:00 +11°C° 0 mm 3 m/S 750 mmHg 54%
    20:00 +10°C° 0 mm 3 m/S 751 mmHg 56%
    21:00 +10°C° 0 mm 3 m/S 751 mmHg 58%
    22:00 +9°C° 0 mm 3 m/S 751 mmHg 60%
    23:00 +9°C° 0 mm 3 m/S 751 mmHg 61%

    23 April, Dienstag

    Zeit Temperatur Niederschläge Wind Luftdruck Luftfeuchtigkeit
    00:00 +9°C° 0 mm 3 m/S 751 mmHg 62%
    01:00 +8°C° 0 mm 3 m/S 751 mmHg 64%
    02:00 +8°C° 0 mm 3 m/S 751 mmHg 65%
    03:00 +7°C° 0 mm 3 m/S 751 mmHg 67%
    04:00 +5°C° 0 mm 3 m/S 751 mmHg 69%
    05:00 +5°C° 0 mm 3 m/S 752 mmHg 71%
    06:00 +7°C° 0 mm 3 m/S 752 mmHg 67%
    07:00 +8°C° 0 mm 4 m/S 752 mmHg 62%
    08:00 +9°C° 0 mm 5 m/S 753 mmHg 57%
    09:00 +10°C° 0 mm 5 m/S 753 mmHg 53%
    10:00 +13°C° 0 mm 6 m/S 753 mmHg 48%
    11:00 +14°C° 0 mm 6 m/S 753 mmHg 44%
    12:00 +14°C° 0 mm 6 m/S 752 mmHg 43%
    13:00 +15°C° 0 mm 6 m/S 752 mmHg 43%
    14:00 +15°C° 0 mm 6 m/S 752 mmHg 42%
    15:00 +15°C° 0 mm 6 m/S 751 mmHg 44%
    16:00 +15°C° 0 mm 6 m/S 751 mmHg 46%
    17:00 +14°C° 0 mm 5 m/S 751 mmHg 48%
    18:00 +13°C° 0 mm 5 m/S 751 mmHg 50%
    19:00 +12°C° 0 mm 4 m/S 751 mmHg 53%
    20:00 +11°C° 0 mm 4 m/S 751 mmHg 55%
    21:00 +10°C° 0 mm 4 m/S 751 mmHg 59%
    22:00 +9°C° 0 mm 3 m/S 751 mmHg 62%
    23:00 +8°C° 0 mm 3 m/S 751 mmHg 65%

    24 April, Mittwoch

    Zeit Temperatur Niederschläge Wind Luftdruck Luftfeuchtigkeit
    00:00 +8°C° 0 mm 3 m/S 751 mmHg 66%
    01:00 +7°C° 0 mm 3 m/S 751 mmHg 67%
    02:00 +5°C° 0 mm 3 m/S 751 mmHg 68%
    03:00 +5°C° 0 mm 3 m/S 751 mmHg 69%
    04:00 +5°C° 0 mm 3 m/S 751 mmHg 70%
    05:00 +5°C° 0 mm 3 m/S 751 mmHg 71%
    06:00 +6°C° 0 mm 4 m/S 751 mmHg 66%
    07:00 +8°C° 0 mm 5 m/S 752 mmHg 61%
    08:00 +10°C° 0 mm 6 m/S 752 mmHg 55%
    09:00 +11°C° 0 mm 6 m/S 752 mmHg 53%
    10:00 +13°C° 0 mm 6 m/S 752 mmHg 51%
    11:00 +14°C° 0 mm 6 m/S 752 mmHg 48%
    12:00 +15°C° 0 mm 6 m/S 752 mmHg 48%
    13:00 +15°C° 0 mm 6 m/S 751 mmHg 47%
    14:00 +16°C° 0 mm 6 m/S 751 mmHg 47%
    15:00 +15°C° 0 mm 6 m/S 751 mmHg 47%
    16:00 +15°C° 0 mm 5 m/S 751 mmHg 48%
    17:00 +15°C° 0 mm 5 m/S 750 mmHg 49%
    18:00 +13°C° 0 mm 4 m/S 750 mmHg 54%
    19:00 +12°C° 0 mm 4 m/S 750 mmHg 59%
    20:00 +10°C° 0 mm 3 m/S 751 mmHg 64%
    21:00 +10°C° 0 mm 2 m/S 751 mmHg 66%
    22:00 +9°C° 0 mm 2 m/S 751 mmHg 69%
    23:00 +8°C° 0 mm 2 m/S 751 mmHg 71%
    Mehr zeigen